Terminal Aerodrome Forecast
Issued by NWS

Home | Current Version | Previous Version | Text Only | Print | Product List | Glossary On
Versions: 1 2 3 4 5 6 7 8 9 10 11 12 13 14
000
FTAK31 PAJN 182340 RRA
TAFAKT
TAF
PAKT 182340Z 1900/1924 14010KT P6SM -SHRA SCT015 OVC035
      TEMPO 1900/1904 14010G20KT 5SM -SHRA BR BKN025
     FM191800 15012KT 4SM -SHRA BR OVC015
      AMD LTD TO CLD VIS AND WIND 1906/1915=

USA.gov is the U.S. government's official web portal to all federal, state and local government web resources and services.